Wind_Speed
47 48 48 45 51 46 48 50 50 48 49 49 50 50 52 46 46 44 43 39 32 34 37 35 39 39 36
48 43 46 51 51 51 53 50 51 52 54 51 50 51 47 51 47 44 42 38 33 35 36 38 39 38 32
47 48 50 52 54 53 51 52 55 56 54 51 52 51 51 51 49 47 45 37 36 37 38 37 39 35 29
48 49 54 56 60 61 58 57 61 57 54 51 51 50 52 51 50 51 48 44 38 40 39 39 37 32 31
51 53 56 58 57 61 65 66 66 58 59 59 56 55 57 59 54 56 53 50 41 39 39 37 33 32 32
53 56 53 52 53 60 62 63 63 61 58 56 58 62 60 61 61 58 52 49 45 41 39 36 34 34 33
54 58 62 58 61 62 59 64 63 60 66 59 62 61 63 61 57 55 50 49 47 42 39 35 34 35 35
51 52 53 58 58 57 57 60 55 55 52 56 57 57 58 57 54 52 50 47 43 38 37 35 36 36 35
53 56 59 60 62 58 59 59 57 50 48 49 52 57 55 50 47 44 46 38 37 38 34 33 36 36 35
60 62 65 67 66 65 62 58 66 67 59 51 53 53 50 50 49 39 36 37 35 35 32 33 36 35 34
67 71 73 74 73 67 61 57 58 64 58 62 53 43 45 44 41 37 37 36 37 34 33 34 34 33 30
73 76 80 79 73 64 60 53 55 48 49 47 43 41 39 35 35 38 38 39 36 31 32 33 31 29 28
81 84 84 69 58 54 49 48 44 40 38 38 35 33 35 36 38 37 36 35 32 31 30 29 29 27 26
85 88 82 63 54 48 53 47 44 35 37 37 34 35 34 33 33 33 33 32 31 30 29 27 27 26 27
88 82 68 57 56 49 49 49 49 48 42 39 31 30 32 34 31 32 31 31 31 29 28 27 26 25 25
82 67 56 56 57 47 51 47 48 41 36 45 35 30 27 27 30 29 29 30 29 26 26 25 25 25 25
68 55 53 55 51 46 45 51 40 37 41 36 33 29 29 31 28 29 29 29 29 25 24 24 25 24 23
Wind_Direction
282 272 269 271 273 277 280 283 284 288 290 299 295 289 291 289 285 287 286 292 289 289 290 290 296 298 305
280 266 264 267 270 276 281 283 282 289 290 294 293 290 282 288 282 285 285 284 283 285 287 285 290 296 293
279 269 266 269 274 278 280 284 285 288 284 288 286 286 282 283 278 281 281 276 277 282 282 285 289 290 281
275 269 271 272 273 279 277 281 284 281 279 283 286 280 277 279 281 280 280 273 275 281 280 286 287 280 277
276 272 276 279 279 279 280 282 284 277 277 281 281 276 277 278 276 275 277 274 273 275 281 281 275 272 273
283 280 285 288 291 287 285 279 276 278 276 280 271 271 272 273 274 276 271 270 270 273 276 274 266 267 270
289 285 292 289 290 293 294 281 281 283 279 270 266 267 267 269 266 267 264 268 268 270 273 261 261 265 267
291 296 299 299 296 293 290 283 276 279 269 269 266 266 262 262 266 265 267 268 273 268 259 254 258 260 264
294 294 295 296 298 293 285 285 279 266 268 263 262 257 264 269 268 267 269 271 266 257 248 251 258 261 263
299 298 297 297 295 294 292 283 274 272 275 272 257 261 268 266 265 269 264 265 256 249 246 252 258 260 264
301 299 296 293 292 292 290 285 279 276 275 274 269 269 265 263 267 261 258 256 245 239 244 251 257 261 260
299 298 296 293 291 290 290 279 276 277 270 267 266 266 260 259 252 250 249 246 237 239 246 251 254 256 258
299 295 291 289 283 282 273 270 265 263 261 258 264 261 256 250 250 250 246 236 237 242 248 251 253 252 252
295 289 287 283 270 265 264 259 257 257 261 261 257 248 247 244 242 242 240 241 241 244 245 248 249 251 252
292 288 282 270 261 256 264 255 256 254 262 253 255 255 249 246 247 242 242 244 242 239 241 242 246 250 251
292 284 267 256 255 257 251 248 251 253 257 245 250 251 250 256 247 245 245 240 235 236 240 244 243 245 248
290 272 258 255 254 251 249 243 247 248 259 234 239 250 249 250 250 241 237 237 234 233 238 241 243 246 248
Height
5724 5723 5723 5723 5722 5722 5721 5720 5719 5717 5716 5713 5710 5708 5708 5706 5706 5705 5703 5701 5701 5700 5700 5698 5698 5695 5691
5713 5711 5712 5711 5710 5710 5710 5709 5707 5706 5705 5701 5698 5697 5696 5695 5694 5694 5693 5692 5691 5691 5689 5688 5686 5684 5683
5700 5700 5700 5700 5699 5698 5697 5696 5694 5693 5691 5690 5687 5686 5685 5684 5683 5683 5683 5681 5681 5681 5679 5678 5676 5674 5674
5689 5689 5688 5688 5686 5684 5684 5682 5680 5679 5677 5676 5674 5672 5671 5672 5672 5672 5671 5671 5671 5670 5669 5667 5667 5666 5664
5677 5677 5676 5675 5672 5670 5669 5667 5665 5664 5663 5662 5662 5658 5657 5658 5659 5660 5660 5660 5659 5658 5657 5656 5656 5656 5654
5665 5663 5663 5659 5657 5656 5652 5651 5649 5648 5645 5645 5644 5643 5643 5644 5645 5646 5646 5647 5646 5646 5645 5645 5645 5645 5645
5653 5651 5648 5647 5643 5642 5638 5634 5633 5631 5631 5629 5628 5628 5628 5629 5629 5629 5630 5632 5632 5632 5634 5633 5633 5634 5634
5640 5637 5633 5631 5629 5625 5621 5619 5617 5615 5613 5614 5613 5614 5614 5616 5615 5615 5616 5616 5619 5619 5620 5620 5621 5623 5623
5627 5623 5621 5617 5614 5611 5608 5606 5606 5603 5600 5598 5599 5600 5600 5601 5601 5600 5602 5604 5605 5606 5607 5609 5611 5612 5614
5611 5607 5603 5599 5596 5594 5592 5591 5590 5589 5587 5588 5585 5586 5587 5587 5588 5588 5589 5591 5593 5595 5597 5599 5601 5602 5603
5593 5589 5583 5578 5575 5575 5573 5572 5571 5569 5569 5572 5572 5572 5572 5572 5574 5575 5577 5579 5580 5582 5585 5589 5590 5592 5593
5573 5567 5561 5556 5554 5553 5555 5555 5554 5553 5553 5554 5556 5558 5560 5560 5561 5562 5564 5566 5569 5572 5576 5579 5580 5582 5583
5551 5545 5539 5536 5534 5535 5537 5538 5540 5541 5541 5541 5543 5544 5547 5548 5549 5551 5553 5556 5560 5564 5567 5570 5572 5573 5576
5529 5521 5516 5516 5516 5519 5519 5522 5526 5528 5530 5530 5531 5532 5535 5537 5539 5543 5545 5549 5552 5555 5558 5561 5563 5565 5568
5499 5493 5492 5494 5497 5500 5503 5507 5510 5512 5515 5519 5521 5522 5524 5527 5530 5532 5536 5539 5543 5546 5549 5551 5554 5557 5560
5472 5467 5468 5473 5478 5482 5486 5490 5494 5498 5500 5505 5510 5513 5515 5517 5520 5523 5527 5530 5534 5537 5541 5544 5546 5550 5553
5446 5444 5447 5453 5459 5464 5471 5476 5479 5483 5489 5492 5497 5501 5505 5508 5511 5515 5519 5522 5526 5529 5533 5536 5540 5543 5545